EW0802 Weather Reports


Display with metric or nautical units.
time (UTC)temp
F
wind
direction
speed
MPH
gust
MPH
rain 1hr
in
rain 24hr
in
rain mn
in
humidity
%
barometer
mb
20260904000058 88 178 2.0 8.0 0.00 0.00 0.00 61 1009.4
20260903234551 89 139 3.0 8.0 0.00 0.00 0.00 60 1009.3
20260903233049 90 103 3.0 10.0 0.00 0.00 0.00 59 1009.2
20260903231555 91 14 3.0 8.0 0.00 0.00 0.00 59 1009.1
20260903230050 91 121 1.0 10.0 0.00 0.00 0.00 59 1008.9
20260903224548 91 126 3.0 6.0 0.00 0.00 0.00 59 1008.9
20260903223048 91 52 2.0 7.0 0.00 0.00 0.00 60 1009.0
20260903221548 92 138 2.0 9.0 0.00 0.00 0.00 59 1009.0
20260903220055 93 103 1.0 8.0 0.00 0.00 0.00 58 1008.9
20260903214545 92 136 2.0 4.0 0.00 0.00 0.00 59 1009.0
20260903213053 92 162 3.0 6.0 0.00 0.00 0.00 60 1009.0
20260903211540 91 140 1.0 7.0 0.00 0.00 0.00 61 1009.2
20260903210037 90 92 1.0 7.0 0.00 0.00 0.00 64 1009.4
20260903204532 89 230 2.0 8.0 0.00 0.00 0.00 64 1009.7
20260903203045 89 115 1.0 9.0 0.00 0.00 0.00 65 1009.9
20260903201536 90 178 3.0 8.0 0.00 0.00 0.00 65 1010.0
20260903200030 90 142 2.0 10.0 0.00 0.00 0.00 65 1010.0
20260903194528 90 137 3.0 14.0 0.00 0.00 0.00 65 1010.1
20260903193031 89 116 3.0 11.0 0.00 0.00 0.00 68 1010.2
20260903191523 88 133 3.0 8.0 0.00 0.00 0.00 68 1010.5
20260903190021 88 130 3.0 9.0 0.00 0.00 0.00 69 1010.7
20260903184517 87 79 2.0 11.0 0.00 0.00 0.00 70 1010.9
20260903183015 86 124 2.0 13.0 0.00 0.00 0.00 72 1011.2
20260903181516 86 111 4.0 10.0 0.00 0.00 0.00 71 1011.3
20260903180020 86 157 3.0 11.0 0.00 0.00 0.00 71 1011.3
20260903174512 86 146 3.0 13.0 0.00 0.00 0.00 71 1011.5
20260903173010 86 148 4.0 11.0 0.00 0.00 0.00 72 1011.7
20260903171508 85 111 2.0 9.0 0.00 0.00 0.00 73 1011.7
20260903170011 85 235 2.0 10.0 0.00 0.00 0.00 75 1011.8
20260903164505 84 90 2.0 10.0 0.00 0.00 0.00 75 1011.8
20260903163002 84 108 3.0 10.0 0.00 0.00 0.00 75 1011.9
20260903161502 84 98 4.0 9.0 0.00 0.00 0.00 76 1011.8
20260903160100 84 191 2.0 11.0 0.00 0.00 0.00 77 1011.8
20260903154600 83 228 2.0 7.0 0.00 0.00 0.00 78 1011.9
20260903153054 81 234 1.0 8.0 0.00 0.00 0.00 80 1011.8
20260903151551 80 236 0.0 7.0 0.00 0.00 0.00 81 1011.8
20260903150049 80 234 2.0 7.0 0.00 0.00 0.00 81 1011.7
20260903144557 80 237 0.0 3.0 0.00 0.00 0.00 81 1012.0
20260903143052 79 237 0.0 2.0 0.00 0.00 0.00 81 1012.1
20260903141546 79 248 0.0 5.0 0.00 0.00 0.00 81 1011.8
20260903140047 79 242 1.0 4.0 0.00 0.00 0.00 81 1011.8
20260903134541 78 236 0.0 4.0 0.00 0.00 0.00 82 1011.8
20260903133040 78 238 0.0 2.0 0.00 0.00 0.00 82 1011.7
20260903131533 77 238 0.0 4.0 0.00 0.00 0.00 82 1011.5
20260903130030 77 236 0.0 4.0 0.00 0.00 0.00 82 1011.5
20260903124528 77 237 0.0 3.0 0.00 0.00 0.00 82 1011.6
20260903123029 77 235 0.0 3.0 0.00 0.00 0.00 82 1011.3
20260903121532 77 236 0.0 2.0 0.00 0.00 0.00 82 1011.3
20260903120038 77 235 0.0 2.0 0.00 0.00 0.00 82 1011.2
20260903114525 77 236 0.0 1.0 0.00 0.00 0.00 81 1011.1
20260903113039 77 236 0.0 1.0 0.00 0.00 0.00 81 1011.1
20260903111524 76 236 0.0 0.0 0.00 0.00 0.00 81 1011.2
20260903110024 76 236 0.0 0.0 0.00 0.00 0.00 81 1011.0
20260903104532 76 236 0.0 0.0 0.00 0.00 0.00 80 1011.0
20260903103029 76 236 0.0 0.0 0.00 0.00 0.00 81 1010.8
20260903101526 77 236 0.0 0.0 0.00 0.00 0.00 80 1010.8
20260903100026 76 236 0.0 0.0 0.00 0.00 0.00 80 1010.9
20260903094537 77 236 0.0 0.0 0.00 0.00 0.00 80 1010.9
20260903093018 77 236 0.0 0.0 0.00 0.00 0.00 79 1010.9
20260903091517 77 235 0.0 0.0 0.00 0.00 0.00 79 1010.8
20260903090017 77 235 0.0 0.0 0.00 0.00 0.00 78 1010.7
20260903084514 78 235 0.0 0.0 0.00 0.00 0.00 77 1010.8
20260903083013 78 235 0.0 0.0 0.00 0.00 0.00 77 1010.9
20260903081513 78 235 0.0 0.0 0.00 0.00 0.00 76 1010.8
20260903080010 78 235 0.0 0.0 0.00 0.00 0.00 76 1010.7
20260903074509 79 234 0.0 0.0 0.00 0.00 0.00 76 1010.8
20260903073008 79 234 0.0 0.0 0.00 0.00 0.00 75 1011.0
20260903071507 79 234 0.0 1.0 0.00 0.00 0.00 74 1011.0
20260903070005 80 235 0.0 0.0 0.00 0.00 0.00 73 1010.9
20260903064502 80 235 0.0 0.0 0.00 0.00 0.00 73 1010.8
20260903063100 80 235 0.0 1.0 0.00 0.00 0.00 72 1011.2
20260903061558 81 235 0.0 2.0 0.00 0.00 0.00 71 1011.3
20260903060100 81 235 0.0 0.0 0.00 0.00 0.00 71 1011.4
20260903054553 82 236 0.0 2.0 0.00 0.00 0.00 70 1011.6
20260903053051 82 236 0.0 3.0 0.00 0.00 0.00 69 1011.5
20260903051607 82 234 0.0 3.0 0.00 0.00 0.00 68 1011.5
20260903050053 83 235 0.0 3.0 0.00 0.00 0.00 67 1011.5
20260903044549 83 234 0.0 4.0 0.00 0.00 0.00 66 1011.3
20260903043144 84 234 0.0 3.0 0.00 0.00 0.00 65 1011.3
20260903041544 84 234 0.0 1.0 0.00 0.00 0.00 64 1011.2
20260903040044 85 234 0.0 5.0 0.00 0.00 0.00 63 1011.4
20260903034543 86 236 0.0 3.0 0.00 0.00 0.00 62 1011.2
20260903033042 86 236 1.0 4.0 0.00 0.00 0.00 61 1011.1
20260903031542 87 236 1.0 3.0 0.00 0.00 0.00 60 1011.2
20260903030042 87 136 2.0 9.0 0.00 0.00 0.00 59 1011.0
20260903024544 88 109 1.0 8.0 0.00 0.00 0.00 58 1010.7
20260903023041 88 30 1.0 5.0 0.00 0.00 0.00 56 1010.6
20260903021541 89 146 1.0 7.0 0.00 0.00 0.00 55 1010.3
20260903020042 90 15 2.0 7.0 0.00 0.00 0.00 54 1010.1
20260903014548 90 130 1.0 4.0 0.00 0.00 0.00 54 1010.0
20260903013049 91 152 1.0 4.0 0.00 0.00 0.00 53 1009.9
20260903011538 91 84 1.0 6.0 0.00 0.00 0.00 52 1009.7
20260903010041 92 137 0.0 4.0 0.00 0.00 0.00 51 1009.5
20260903004537 93 80 0.0 2.0 0.00 0.00 0.00 51 1009.5
20260903003038 94 348 1.0 6.0 0.00 0.00 0.00 48 1009.6
20260903001536 95 59 2.0 5.0 0.00 0.00 0.00 45 1009.4